{"data":{"norad_id":41194,"intl_designator":"2015-083A","name":"GAOFEN-4","alt_names":[],"object_type":"PAYLOAD","status":"ACTIVE","operator":null,"country":"PRC","launch_date":"2015-12-28","launch_site_code":"XICLF","launch_vehicle":null,"mission":null,"orbit_class":"UNKNOWN","rcs_meters":22.1298,"size_class":null,"mass_kg":null,"dimensions":null,"purposes":["comms","earth_obs"],"wikipedia_slug":null,"has_3d_model":false,"image_url":null,"decayed_at":null,"tle_current":{"epoch":"2026-05-25T00:49:28.898400Z","epoch_age_seconds":69187,"freshness":"FRESH","line1":"1 41194U 15083A   26145.03436225 -.00000336  00000+0  00000+0 0  9990","line2":"2 41194   0.3702  83.1964 0002463 130.4738 146.9806  1.00267079 38293","mean_motion":1.00267079,"eccentricity":0.0002463,"inclination_deg":0.3702,"raan_deg":83.1964,"arg_perigee_deg":130.4738,"mean_anomaly_deg":146.9806,"bstar":0,"rev_number":3829,"period_min":1436.1643067312,"perigee_km":35777.528776993,"apogee_km":35798.299773852,"semimajor_km":42166.051275422,"source":"CELESTRAK","updated_at":"2026-05-25T13:38:13.998759Z"}}}